www.pogodaiklimat.ru

Погода и климат >> Архив погоды >> Россия >> Челябинская область >> Троицк


АРХИВ ПОГОДЫ в Троицке

Время (UTC), дата Ветер
(напр.,м/с)
 
Видим.   Явления Облачность Т
(С)
Тd
(С)
f
(%)
Тe
(С)
Тes
(С)
Комфортность P
(гПа)
Po
(гПа)
Тmin
(С)
Tmax
(С)
R
(мм)
R24
(мм)
S
(см)
12 18.05 СЗ 5
{16}
10 км 9/9 600 м
[Cb cap]
+11.2 +2.4 55 +9 +9 1004.3 981.6
15 18.05 З 5
{10}
10 км 9/9 600 м
[Cb cap]
+12.4 -1.6 38 +11 +11 1003.1 980.4 +15.3
18 18.05 З 3 10 км 6/3 600 м
[Cb cap Ac lent]
+6.7 +0.6 65 +4 +4 1003.5 980.4
21 18.05 З 3 10 км 8/8 600 м
[Sc]
+5.4 +0.9 73 +2 +2 1002.7 979.5
00 19.05 З 3 10 км 6/3 600 м
[Cb cap Ac lent]
+2.6 -0.8 78 -1 -1 1002.8 979.3
03 19.05 СЗ 5
{10}
10 км 9/8 600 м
[Cb cap Ac trans]
+5.6 -1.3 61 +2 +2 1002.7 979.5 +2.5
06 19.05 З 6-10
{13}
10 км 10/8 600 м
[Cb cap Ac cuf Ci ing]
+8.3 -2.7 46 +5 +5 1002.6 979.6
09 19.05 З 6-12
{15}
10 км 9/9 600 м
[Cb cap]
+5.5 -0.9 63 +1 +2 1004.5 981.2
12 19.05 СЗ 6-10
{13}
10 км 8/6 600 м
[Cb cap Ac cuf Ci fib]
+10.0 -4.6 35 +7 +8 1004.8 981.9
15 19.05 СЗ 4
{11}
10 км 9/3 600 м
[Sc diur, vesp Ac trans Cc]
+7.8 -3.8 44 +5 +5 1006.2 983.1 +11.2
18 19.05 З 1 10 км 9/3 600 м
[Sc Ci sp]
+4.3 -1.3 67 +3 +3 1007.1 983.7
21 19.05 З 1 10 км 8/3 600 м
[Sc Ci sp]
+2.8 -1.5 73 +1 +1 1007.1 983.5
00 20.05 З 1 10 км 8/3 600 м
[Sc Ci sp]
+0.6 -2.2 81 -1 -1 1007.6 983.9
03 20.05 СЗ 4 10 км 1/1 1000 м
[Sc]
+6.5 -1.5 57 +3 +6 1007.2 984.0 +0.5
06 20.05 З 4 10 км 8/8 600 м
[Cu med, cong]
+9.5 -4.9 36 +7 +9 1006.8 983.8
09 20.05 СЗ 6-11
{11}
10 км 8/8 600 м
[Cu med, cong]
+9.7 -5.1 35 +7 +8 1007.1 984.1
12 20.05 СЗ 6-10
{12}
10 км 8/4 600 м
[Sc diur, vesp Ci sp]
+10.5 -4.0 36 +8 +9 1007.3 984.4
15 20.05 З 5
{12}
10 км 4/3 600 м
[Sc diur, vesp Ac trans Ci fib]
+8.6 -2.0 47 +6 +6 1008.2 985.1 +11.6
18 20.05 З 3
{10}
10 км 1/1 600 м
[Sc]
+4.0 -0.4 73 +1 +1 1009.7 986.2
21 20.05 СЗ 2 10 км ясно +1.5 -1.2 82 -2 -2 1009.9 986.2
00 21.05 З 2 10 км 5/0
[Ci fib]
-0.7 -2.3 89 -5 -5 1010.5 986.6
03 21.05 СЗ 4 10 км 1/0
[Ci fib]
+7.8 +0.1 58 +5 +8 1010.1 986.9 -0.9
06 21.05 СЗ 5-10
{11}
10 км 8/8 600 м
[Cu med, cong]
+11.6 -6.3 28 +10 +11 1009.4 986.6
09 21.05 СЗ 7-11
{20}
10 км 9/8 600 м
[Cu med, cong Ci sp]
+12.7 -5.9 27 +10 +11 1009.7 986.9
12 21.05 СЗ 6-10
{14}
10 км 10/10 600 м
[Cb cap]
+11.0 -4.6 33 +9 +9 1011.2 988.2
15 21.05 С 3
{10}
10 км 9/6 600 м
[Cb cap Ci ing]
+9.7 -2.5 42 +8 +8 1012.3 989.3 +12.9
18 21.05 СВ 1 10 км 10/8 600 м
[Cb cap Ci ing]
+7.4 -0.7 56 +7 +7 1013.7 990.4
21 21.05 СЗ 1 10 км 10/10 600 м
[Sc]
+5.8 -0.2 65 +5 +5 1014.0 990.6
00 22.05 З 1 10 км 9/8 600 м
[Sc Ci sp]
+4.3 -1.2 67 +3 +3 1014.4 990.8
03 22.05 СЗ 1 10 км 10/0
[Ac trans Cs]
+8.8 -1.4 49 +9 +12 1014.5 991.3 +4.3
06 22.05 СЗ 3 10 км 9/8 600 м
[Cb cap Ac cuf Ci fib]
+12.3 -4.4 31 +11 +13 1013.7 990.8
09 22.05 СЗ 4 10 км 9/9 600 м
[Cu Sc]
+14.4 -5.7 24 +13 +14 1013.4 990.7
12 22.05 СЗ 3
{10}
10 км 8/6 600 м
[Sc diur, vesp Ac cuf]
+15.8 -6.6 21 +16 +17 1013.1 990.5
15 22.05 СЗ 1 10 км 9/6 600 м
[Sc diur, vesp Ac cuf]
+14.4 -6.5 23 +15 +15 1013.7 990.9 +16.1
18 22.05 Ю 1 10 км 8/4 600 м
[Sc diur, vesp Ac trans]
+9.0 -4.9 37 +9 +9 1014.8 991.6
21 22.05 Ю 1 10 км 8/5 600 м
[Sc Ac trans]
+5.4 -4.0 51 +5 +5 1014.8 991.3
00 23.05 штиль 0 10 км 10/3 600 м
[Sc Cs]
+2.7 -3.5 64 +2 +2 1014.8 991.1
03 23.05 В 1 10 км 10/0
[Cs]
+12.2 -1.3 39 +13 +17 1012.9 990.0 +2.3
06 23.05 ЮЗ 4
{10}
10 км 10/1 1000 м
[Cu hum Cs]
+18.5 -4.1 21 +18 +25 1010.5 988.1
09 23.05 ЮЗ 5-11
{11}
10 км 10/5 1000 м
[Cb cap Ac cuf Ci sp]
+18.5 +1.2 31 +18 +20 1008.8 986.5
12 23.05 ЮЗ 4
{11}
10 км в посл. час ливневой дождь 10/8 600 м
[Cb cap Ac cuf Ci ing]
+15.8 +9.5 66 +15 +16 1008.1 985.6
15 23.05 З 3
{12}
10 км 9/8 600 м
[Cb cap Ci fib]
+18.8 +7.4 47 +19 +20 1005.8 983.6 +19.5 0.5
18 23.05 ЮЗ 3
{13}
10 км {ливн. осадки} 10/8 600 м
[Cb cap Ac cuf Ci sp]
+14.7 +8.1 65 +14 +14 1005.4 982.9
21 23.05 ЮЗ 5
{10}
10 км 8/4 600 м
[Cb cap Ac cuf Ci sp]
+12.8 +5.8 62 +11 +11 1004.1 981.5
00 24.05 ЮЗ 4 10 км 8/0
[Ac lent Ci sp]
+12.4 +3.4 54 +11 +11 1003.1 980.5
03 24.05 ЮЗ 7-11
{12}
10 км 9/0
[Ac lent Ci sp]
+15.8 +2.4 40 +14 +15 1002.4 980.0 +11.8 2
06 24.05 ЮЗ 10-18
{18}
10 км 10/0
[Cs]
+22.1 -0.4 22 +21 +22 комфорт 1000.6 978.8
09 24.05 З 11-19
{20}
10 км 10/3 1000 м
[Cb cap Cs]
+23.9 -5.2 14 +22 +22 комфорт 999.1 977.3
12 24.05 ЮЗ 8-13
{19}
10 км 10/3 1000 м
[Cb cap Ac trans Ci sp]
+23.7 -5.9 13 +22 +22 комфорт 997.6 975.9
15 24.05 С 6-10
{16}
10 км 9/9 600 м
[Cb cap]
+11.0 +6.3 73 +8 +8 1002.0 979.3 +24.8
18 24.05 С 4
{10}
10 км в посл. час ливневой дождь 10/10 600 м
[Cb cap]
+6.5 +4.2 85 +3 +3 1006.2 983.0
21 24.05 С 4 10 км 6/6 600 м
[Sc]
+5.2 +1.2 75 +1 +1 1008.1 984.8
00 25.05 СЗ 4 10 км ясно +2.2 -1.3 78 -3 -3 1011.3 987.6
03 25.05 С 5-10
{10}
10 км ясно +5.6 -2.6 56 +2 +4 1013.8 990.4 +2.1 6
06 25.05 СЗ 5-10
{11}
10 км 6/6 1000 м
[Cu med, cong]
+8.5 -4.8 39 +6 +9 1015.5 992.2

 

Местоположение метеостанции Троицк (Челябинская область, Россия): широта 54.08 долгота 61.62 высота над уровнем моря 192 м.

В архиве по умолчанию представлена погода в Троицке за последнюю неделю. Архивные данные за месяц целиком и за предыдущие месяцы, начиная с января 2011 года, Вы можете получить, выбрав интересующий диапазон дат из раскрывающегося списка и нажав кнопку "Ввод!".


*Определитесь, кто Вы:
робот инопланетянин человек

Внимание! Время в таблицах - всемирное. Для получения местного времени необходимо прибавить поправку, которая равна 5 ч.

Смотрите также архив погоды в соседних городах и на ближайших метеорологических станциях:

Погода в Южноуральске (Челябинская область, Россия) (43 км)
Погода в Карабалыке (Костанайская область, Казахстан) (46 км)
Погода в Михайловке (Костанайская область, Казахстан) (55 км)
Погода в Октябрьском (Челябинская область, Россия) (80 км)
Погода в Мирном (Челябинская область, Россия) (100 км)
Погода в Челябинске (Челябинская область, Россия) (121 км)
Погода в Карталы (Челябинская область, Россия) (131 км)
Погода в Целинном (Курганская область, Россия) (141 км)
Погода в Миассе (Челябинская область, Россия) (143 км)
Погода в Учалах (Башкирия, Россия) (146 км)

Пояснения к столбцам:

Ветер - указаны скорость ветра в м/с - средняя за 10 мин, порывы в срок и между сроками (в фигурных скобках) и направление, откуда дует ветер: С - северный, СВ - северо-восточный, В - восточный, ЮВ - юго-восточный, Ю - южный, ЮЗ - юго-западный, З - западный, СЗ - северо-западный.
Видимость - горизонтальная дальность видимости в метрах или километрах. При видимости от 1 до 10 км при отсутствии осадков обычно наблюдается дымка, при ухудшении видимости до 1 км и менее - туман. В сухую погоду видимость может ухудшаться дымом, пылью или мглою.
Явления - указаны атмосферные явления, наблюдавшиеся в срок или в последний час перед сроком; фигурными скобками обозначены явления, наблюдавшиеся между сроками (за 1-3 часа до срока); квадратными скобками обозначены град или гололедные отложения с указанием их диаметра в мм.
Облачность - указаны через наклонную черту общая и нижняя облачность в баллах и высота нижней границы облаков в метрах; квадратными скобками обозначены формы облаков: Ci - перистые, Cs - перисто-слоистые, Cc - перисто-кучевые, Ac - высококучевые, As - высокослоистые, Sc - слоисто-кучевые, Ns - слоисто-дождевые, Cu - кучевые, Cb - кучево-дождевые. Подробнее классификацию облаков см. в Атласе облаков (PDF).
T - Температура воздуха - температура, измеренная на высоте 2 м над землей.
Td - Температура точки росы - температура, при понижении до которой содержащийся в воздухе водяной пар достигнет насыщения.
f - Относительная влажность воздуха - влажноcть воздуха, измеренная на высоте 2 м над землей.
Te - Эффективная температура - температура, которую ощущает одетый по сезону человек в тени. Характеристика душности погоды. При расчете учитывается влияние влажности воздуха и скорости ветра на теплоощущения человека.
Tes - Эффективная температура на солнце - температура, которую ощущает человек, с поправкой на солнечный нагрев. Характеристика знойности погоды. Зависит от высоты солнца над горизонтом, облачности и скорости ветра. Ночью, в пасмурную погоду, а также при ветре 12 м/с и более поправка равна нулю.
P - Атмосферное давление - приведенное к уровню моря атмосферное давление.
Po - Атмосферное давление - измеренное на уровне метеостанции атмосферное давление.
Tmin - Минимальная температура - минимум температуры воздуха на высоте 2 м над землей.
Tmax - Максимальная температура - максимум температуры воздуха на высоте 2 м над землей.
R - Количество осадков - Количество выпавших осадков за период времени, мм. При наведении курсора мыши на число - период времени, за который выпало указанное количество осадков.
R24 - Количество осадков - Количество выпавших осадков за 24 часа, мм.
S - Снежный покров - Высота снежного покрова, см. При наведении курсора мыши на число - состояние снежного покрова и степень покрытия местности в баллах.